Weather History for KPMD - May, 2011

Change the Weather History Date:

Tuesday, May 31, 2011

  Actual Average Record
Temperature  
Mean Temperature 61 °F 72 °F  
Max Temperature 81 °F 87 °F 104 °F (2001)
Min Temperature 41 °F 56 °F 41 °F (1966)
Degree Days  
Heating Degree Days 4 1  
Month to date heating degree days 122 68  
Since 1 July heating degree days 2993 2918  
Cooling Degree Days 0 8  
Month to date cooling degree days 47 147  
Year to date cooling degree days 53 170  
Growing Degree Days 12 (Base 50)    
Moisture  
Dew Point 22 °F    
Average Humidity 34    
Maximum Humidity 58    
Minimum Humidity 9    
Precipitation  
Precipitation 0.00 in 0.00 in 0.00 in (2015)
Month to date precipitation 0.01 0.25  
Year to date precipitation 2.35 5.23  
Since 1 July precipitation 7.73 8.21  
Snow  
Snow 0.00 in - - ()
Month to date snowfall 0.0  
Since 1 July snowfall 0.0  
Snow Depth 0.00 in    
Sea Level Pressure  
Sea Level Pressure 29.95 in    
Wind  
Wind Speed 14 mph (SW)    
Max Wind Speed 32 mph    
Max Gust Speed 37 mph    
Visibility 10 miles    
Events      
T = Trace of Precipitation, MM = Missing Value Source: NWS Daily Summary

Daily Weather History Graph

Daily Weather History Graph

Search for Another Location

Airport or City:

Trip Planner

Search our weather history database for the weather conditions in past years. The results will help you decide how hot, cold, wet, or windy it might be!

Date:

Astronomy

May. 31, 2011 Rise Set
Actual Time 5:40 AM PDT 7:59 PM PDT
Civil Twilight 5:11 AM PDT 8:28 PM PDT
Nautical Twilight 4:36 AM PDT 9:03 PM PDT
Astronomical Twilight 3:57 AM PDT 9:42 PM PDT
Moon 4:37 AM PDT (5/31) 7:15 PM PDT (5/31)
Length of Visible Light 15h 16m
Length of Day
14h 18m
Waning Crescent, 1% of the Moon is Illuminated
May 31
Waning Crescent
Jun 1
New
Jun 8
First Quarter
Jun 15
Full
Jun 23
Last Quarter

Hourly Weather History & Observations

Time (PDT) Temp. Windchill Dew Point Humidity Pressure Visibility Wind Dir Wind Speed Gust Speed Precip Events Conditions
12:53 AM 57.0 °F - 26.1 °F 30% 29.97 in 10.0 mi WSW 10.4 mph - N/A   Clear
1:53 AM 55.0 °F - 26.1 °F 33% 29.97 in 10.0 mi WSW 9.2 mph - N/A   Clear
2:53 AM 51.1 °F - 24.1 °F 35% 29.96 in 10.0 mi WSW 8.1 mph - N/A   Clear
3:53 AM 52.0 °F - 25.0 °F 35% 29.95 in 10.0 mi Calm Calm - N/A   Clear
4:53 AM 46.0 °F 43.1 °F 27.0 °F 47% 29.95 in 10.0 mi South 5.8 mph - N/A   Clear
5:53 AM 44.1 °F 41.5 °F 30.0 °F 58% 29.96 in 10.0 mi South 4.6 mph - N/A   Clear
6:53 AM 50.0 °F - 28.9 °F 44% 29.97 in 10.0 mi South 4.6 mph - N/A   Clear
7:53 AM 59.0 °F - 28.0 °F 31% 29.96 in 10.0 mi Calm Calm - N/A   Clear
8:53 AM 62.1 °F - 27.0 °F 26% 29.97 in 10.0 mi Calm Calm - N/A   Clear
9:53 AM 66.9 °F - 23.0 °F 19% 29.96 in 10.0 mi Variable 3.5 mph - N/A   Clear
10:53 AM 72.0 °F - 21.0 °F 15% 29.96 in 10.0 mi NNE 4.6 mph - N/A   Clear
11:53 AM 75.9 °F - 26.1 °F 16% 29.94 in 10.0 mi SW 19.6 mph 25.3 mph N/A   Clear
12:53 PM 75.9 °F - 21.0 °F 13% 29.93 in 10.0 mi SW 27.6 mph 33.4 mph N/A   Clear
1:53 PM 80.1 °F - 17.1 °F 9% 29.94 in 10.0 mi SW 25.3 mph 32.2 mph N/A   Clear
2:53 PM 80.1 °F - 16.0 °F 9% 29.94 in 10.0 mi SW 23.0 mph 33.4 mph N/A   Clear
3:53 PM 80.1 °F - 21.0 °F 11% 29.93 in 10.0 mi SW 21.9 mph 28.8 mph N/A   Clear
4:53 PM 77.0 °F - 21.9 °F 13% 29.93 in 10.0 mi SW 26.5 mph 33.4 mph N/A   Clear
5:53 PM 73.9 °F - 19.0 °F 13% 29.93 in 10.0 mi SW 25.3 mph 34.5 mph N/A   Clear
6:53 PM 71.1 °F - 17.1 °F 13% 29.92 in 10.0 mi SW 31.1 mph 35.7 mph N/A   Clear
7:53 PM 66.0 °F - 19.0 °F 17% 29.92 in 10.0 mi WSW 21.9 mph 29.9 mph N/A   Clear
8:53 PM 64.9 °F - 15.1 °F 15% 29.94 in 10.0 mi SW 21.9 mph 26.5 mph N/A   Clear
9:53 PM 63.0 °F - 18.0 °F 18% 29.97 in 10.0 mi SW 18.4 mph - N/A   Clear
10:53 PM 59.0 °F - 21.9 °F 24% 29.98 in 10.0 mi NW 3.5 mph - N/A   Clear
11:53 PM 60.1 °F - 17.1 °F 19% 29.96 in 10.0 mi SW 15.0 mph - N/A   Clear